This demonstration page uses our WeatherBlox Daily Observations layout. Learn more.

Left ArrowRight Arrow

Hourly Observations for March 13, 2022

Temp ( °F °C ) Dew Point ( °F °C ) Humidity (%) Winds ( mph kmh ) Pressure ( in mb ) Visibility ( mi km ) Precip ( " mm )
12:53 am 00:53 Clear 38 3.3 3 -16.1 23 23 SE 10 17 30.13 1020 10 16 0.00 0.00
1:53 am 01:53 Clear 36 2.2 0 -17.8 21 21 SE 10 17 30.11 1020 10 16 0.00 0.00
3:53 am 03:53 Clear 35 1.7 0 -17.8 22 22 SE 12 19 30.09 1019 10 16 0.00 0.00
4:53 am 04:53 Clear 34 1.1 0 -17.8 23 23 SE 10 17 30.07 1018 10 16 0.00 0.00
5:53 am 05:53 Clear 32 0 1 -17.2 26 26 SE 10 17 30.06 1018 10 16 0.00 0.00
6:53 am 06:53 Clear 32 0 1 -17.2 26 26 SE 10 17 30.06 1018 10 16 0.00 0.00
7:53 am 07:53 Clear 30 -1.1 1 -17.2 29 29 SE 8 13 30.09 1019 10 16 0.00 0.00
8:53 am 08:53 Sunny 35 1.7 2 -16.7 24 24 ESE 10 17 30.09 1019 10 16 0.00 0.00
9:53 am 09:53 Sunny 41 5 3 -16.1 20 20 SE 13 20 30.09 1019 10 16 0.00 0.00
10:53 am 10:53 Sunny 48 8.9 4 -15.6 16 16 SSE 12 19 30.09 1019 10 16 0.00 0.00
11:53 am 11:53 Sunny 53 11.7 4 -15.6 13 13 SE 9 15 30.07 1018 10 16 0.00 0.00
12:53 pm 12:53 Sunny 59 15 3 -16.1 10 10 S 9 15 30.03 1017 10 16 0.00 0.00
1:53 pm 13:53 Sunny 64 17.8 5 -15 9 9 S 9 15 29.99 1016 10 16 0.00 0.00
2:53 pm 14:53 Sunny 66 18.9 4 -15.6 8 8 SSW 10 17 29.95 1014 10 16 0.00 0.00
3:53 pm 15:53 Sunny 70 21.1 7 -13.9 8 8 SW 10 17 29.89 1012 10 16 0.00 0.00
4:53 pm 16:53 Sunny 72 22.2 7 -13.9 8 8 S 16 26 29.86 1011 10 16 0.00 0.00
5:53 pm 17:53 Sunny 73 22.8 7 -13.9 7 7 S 14 22 29.83 1010 10 16 0.00 0.00
6:53 pm 18:53 Sunny 73 22.8 7 -13.9 7 7 S 15 24 29.82 1010 10 16 0.00 0.00
7:53 pm 19:53 Sunny 68 20 7 -13.9 9 9 SSE 10 17 29.84 1010 10 16 0.00 0.00
8:53 pm 20:53 Clear 61 16.1 6 -14.4 11 11 S 9 15 29.87 1012 10 16 0.00 0.00
9:53 pm 21:53 Clear 58 14.4 9 -12.8 14 14 SSE 15 24 29.88 1012 10 16 0.00 0.00
10:53 pm 22:53 Clear 55 12.8 11 -11.7 17 17 SE 13 20 29.88 1012 10 16 0.00 0.00
11:53 pm 23:53 Clear 52 11.1 14 -10 22 22 SSE 15 24 29.87 1012 10 16 0.00 0.00

Powered by AerisWeather